sat.trackr.live / text

‹ back to catalog

STARLINK-3622

NORAD 51768 · 2022-017A

PAYLOAD ACTIVE UNKNOWN

§ Identity

Operator
Country
US
Launch date
2022-02-25
Launch site
AFWTR
Launch vehicle
Mass (kg)
RCS (m²)

Purposes: comms

External: N2YO · Heavens-Above · Gunter

§ Orbital elements

Epoch: 2026-09-20T04:21:38.314080Z

Period
93.85 min
Inclination
53.1588°
Eccentricity
0.0002709
Mean motion
15.34394000 rev/d
Perigee alt
460.9 km
Apogee alt
464.6 km
Semi-major
6,840.9 km
B*
9.3564e-4
RAAN
172.8741°
Arg perigee
92.4143°
Mean anomaly
267.7170°
Rev number
25,358

§ Raw data

STARLINK-36221 51768U 22017A   26263.18169345  .00031364  00000+0  93564-3 0  99912 51768  53.1588 172.8741 0002709  92.4143 267.7170 15.34394000253582

JSON: /api/v1/satellites/51768 · /tle

For live sub-satellite position, see the globe view (requires WebGL).

§ Visibility from observer

Set your observer location to see the next 7 days of passes ≥ 10°. The values pass through the URL so the page stays shareable.

No JS? Fill the form by hand. The geolocation button needs JavaScript.